Colby, KS

10:16 PM CST on January 23, 2018 (GMT -0600)
Shaltz

Weather History for KCBK - August, 2013

Change the Weather History Date:

Sunday, August 4, 2013

  Actual Average (KGLD) Record (KGLD)
Temperature  
Mean Temperature 75 °F -  
Max Temperature 84 °F 85 °F 104 °F (1934)
Min Temperature 66 °F 60 °F 47 °F (1974)
Cooling Degree Days 10    
Growing Degree Days 25 (Base 50)    
Moisture  
Dew Point 69 °F    
Average Humidity 88    
Maximum Humidity 100    
Minimum Humidity 62    
Precipitation  
Precipitation 0.00 in - - ()
Sea Level Pressure  
Sea Level Pressure 30.11 in    
Wind  
Wind Speed 8 mph (East)    
Max Wind Speed 14 mph    
Max Gust Speed 18 mph    
Visibility 8 miles    
Events Rain    
Averages and records for this station are not official NWS values.
T = Trace of Precipitation, MM = Missing Value Source: NWS Daily Summary

Daily Weather History Graph

Daily Weather History Graph

Search for Another Location

Airport or City:

Trip Planner

Search our weather history database for the weather conditions in past years. The results will help you decide how hot, cold, wet, or windy it might be!

Date:

Astronomy

Aug. 04, 2013 Rise Set
Actual Time 6:46 AM CDT 8:52 PM CDT
Civil Twilight 6:17 AM CDT 9:22 PM CDT
Nautical Twilight 5:40 AM CDT 9:58 PM CDT
Astronomical Twilight 5:01 AM CDT 10:38 PM CDT
Moon 4:49 AM CDT (8/4) 7:17 PM CDT (8/4)
Length of Visible Light 15h 05m
Length of Day
14h 06m
Waning Crescent, 4% of the Moon is Illuminated
Aug 4
Waning Crescent
Aug 6
New
Aug 14
First Quarter
Aug 20
Full
Aug 28
Last Quarter

Hourly Weather History & Observations

Time (CDT) Temp. Heat Index Dew Point Humidity Pressure Visibility Wind Dir Wind Speed Gust Speed Precip Events Conditions
12:15 AM 69.8 °F - 68.0 °F 94% 30.20 in 10.0 mi NE 6.9 mph - N/A   Overcast
12:35 AM 69.8 °F - 68.0 °F 94% 30.19 in 10.0 mi NE 6.9 mph - N/A   Overcast
12:55 AM 68.0 °F - 68.0 °F 100% 30.18 in 10.0 mi NE 4.6 mph - N/A   Overcast
1:15 AM 68.0 °F - 68.0 °F 100% 30.17 in 10.0 mi ENE 3.5 mph - N/A   Overcast
1:35 AM 68.0 °F - 68.0 °F 100% 30.16 in 10.0 mi ENE 4.6 mph - N/A   Overcast
1:55 AM 68.0 °F - 68.0 °F 100% 30.15 in 10.0 mi East 5.8 mph - N/A   Overcast
2:15 AM 68.0 °F - 68.0 °F 100% 30.14 in 10.0 mi ENE 6.9 mph - N/A   Overcast
2:35 AM 68.0 °F - 68.0 °F 100% 30.15 in 5.0 mi ENE 6.9 mph - N/A   Overcast
2:55 AM 68.0 °F - 68.0 °F 100% 30.15 in 4.0 mi ENE 10.4 mph - N/A   Overcast
3:15 AM 68.0 °F - 68.0 °F 100% 30.14 in 3.0 mi ENE 10.4 mph - N/A   Overcast
3:35 AM 68.0 °F - 68.0 °F 100% 30.14 in 1.5 mi East 10.4 mph - N/A   Overcast
3:55 AM 68.0 °F - 68.0 °F 100% 30.14 in 2.0 mi ENE 8.1 mph - N/A Rain Rain
4:15 AM 66.2 °F - 66.2 °F 100% 30.14 in 4.0 mi East 9.2 mph - N/A Rain Rain
4:35 AM 66.2 °F - 66.2 °F 100% 30.14 in 4.0 mi East 9.2 mph - N/A   Overcast
4:55 AM 66.2 °F - 66.2 °F 100% 30.14 in 2.5 mi East 6.9 mph - N/A   Overcast
5:15 AM 66.2 °F - 66.2 °F 100% 30.13 in 1.8 mi East 4.6 mph - N/A   Overcast
5:35 AM 66.2 °F - 66.2 °F 100% 30.14 in 1.8 mi East 8.1 mph - N/A   Overcast
5:55 AM 66.2 °F - 66.2 °F 100% 30.13 in 1.8 mi East 6.9 mph - N/A   Overcast
6:15 AM 66.2 °F - 66.2 °F 100% 30.14 in 2.5 mi ENE 3.5 mph - N/A   Overcast
6:35 AM 66.2 °F - 66.2 °F 100% 30.14 in 1.0 mi ENE 5.8 mph - N/A   Overcast
6:55 AM 66.2 °F - 66.2 °F 100% 30.13 in 1.8 mi ENE 6.9 mph - N/A   Overcast
7:15 AM 66.2 °F - 66.2 °F 100% 30.14 in 2.0 mi ENE 6.9 mph - N/A   Overcast
7:35 AM 66.2 °F - 66.2 °F 100% 30.14 in 4.0 mi ENE 4.6 mph - N/A   Overcast
7:55 AM 66.2 °F - 66.2 °F 100% 30.14 in 7.0 mi NE 4.6 mph - N/A   Overcast
8:15 AM 66.2 °F - 66.2 °F 100% 30.14 in 5.0 mi NNE 6.9 mph - N/A   Overcast
8:35 AM 66.2 °F - 66.2 °F 100% 30.14 in 10.0 mi NE 9.2 mph - N/A   Overcast
8:55 AM 66.2 °F - 66.2 °F 100% 30.15 in 7.0 mi ENE 6.9 mph - N/A   Overcast
9:15 AM 66.2 °F - 66.2 °F 100% 30.15 in 10.0 mi ENE 8.1 mph - N/A   Overcast
9:35 AM 66.2 °F - 66.2 °F 100% 30.15 in 10.0 mi East 8.1 mph - N/A   Overcast
9:55 AM 68.0 °F - 68.0 °F 100% 30.14 in 5.0 mi SE 8.1 mph - N/A   Overcast
10:15 AM 68.0 °F - 68.0 °F 100% 30.14 in 4.0 mi SE 8.1 mph - N/A   Overcast
10:35 AM 68.0 °F - 68.0 °F 100% 30.14 in 2.5 mi SE 8.1 mph - N/A   Overcast
10:55 AM 69.8 °F - 69.8 °F 100% 30.13 in 5.0 mi SSE 6.9 mph - N/A   Overcast
11:15 AM 69.8 °F - 69.8 °F 100% 30.12 in 10.0 mi South 3.5 mph - N/A   Overcast
11:35 AM 73.4 °F - 69.8 °F 88% 30.12 in 10.0 mi South 6.9 mph - N/A   Overcast
11:55 AM 75.2 °F - 69.8 °F 83% 30.12 in 10.0 mi South 5.8 mph - N/A   Mostly Cloudy
12:15 PM 75.2 °F - 69.8 °F 83% 30.12 in 10.0 mi East 8.1 mph - N/A   Overcast
12:35 PM 71.6 °F - 69.8 °F 94% 30.12 in 10.0 mi East 12.7 mph - N/A   Overcast
12:55 PM 71.6 °F - 69.8 °F 94% 30.11 in 10.0 mi East 11.5 mph - N/A   Overcast
1:15 PM 73.4 °F - 69.8 °F 88% 30.11 in 10.0 mi East 10.4 mph - N/A   Overcast
1:35 PM 75.2 °F - 69.8 °F 83% 30.10 in 10.0 mi East 9.2 mph - N/A   Overcast
1:55 PM 78.8 °F - 69.8 °F 74% 30.10 in 10.0 mi East 9.2 mph - N/A   Overcast
2:15 PM 78.8 °F - 69.8 °F 74% 30.10 in 10.0 mi ESE 12.7 mph - N/A   Overcast
2:35 PM 78.8 °F - 69.8 °F 74% 30.10 in 10.0 mi East 10.4 mph - N/A   Mostly Cloudy
2:55 PM 78.8 °F - 69.8 °F 74% 30.10 in 10.0 mi East 10.4 mph - N/A   Overcast
3:15 PM 80.6 °F 83.9 °F 69.8 °F 70% 30.09 in 10.0 mi East 6.9 mph - N/A   Mostly Cloudy
3:35 PM 80.6 °F 83.9 °F 69.8 °F 70% 30.08 in 10.0 mi ESE 10.4 mph - N/A   Scattered Clouds
3:55 PM 80.6 °F 83.9 °F 69.8 °F 70% 30.08 in 10.0 mi ESE 10.4 mph 16.1 mph N/A   Mostly Cloudy
4:15 PM 80.6 °F 83.9 °F 69.8 °F 70% 30.07 in 10.0 mi East 8.1 mph - N/A   Mostly Cloudy
4:35 PM 82.4 °F 86.3 °F 69.8 °F 66% 30.07 in 10.0 mi ESE 10.4 mph - N/A   Overcast
4:55 PM 82.4 °F 86.3 °F 69.8 °F 66% 30.07 in 10.0 mi ESE 12.7 mph - N/A   Scattered Clouds
5:15 PM 82.4 °F 86.3 °F 69.8 °F 66% 30.05 in 10.0 mi SE 9.2 mph 18.4 mph N/A   Scattered Clouds
5:35 PM 82.4 °F 86.3 °F 69.8 °F 66% 30.04 in 10.0 mi East 11.5 mph - N/A   Clear
5:55 PM 82.4 °F 86.3 °F 69.8 °F 66% 30.04 in 10.0 mi SE 9.2 mph 17.3 mph N/A   Scattered Clouds
6:15 PM 84.2 °F 88.4 °F 69.8 °F 62% 30.05 in 10.0 mi SE 10.4 mph - N/A   Scattered Clouds
6:35 PM 82.4 °F 86.3 °F 69.8 °F 66% 30.05 in 10.0 mi SE 10.4 mph - N/A   Scattered Clouds
6:55 PM 82.4 °F 86.3 °F 69.8 °F 66% 30.04 in 10.0 mi SE 11.5 mph 18.4 mph N/A   Scattered Clouds
7:15 PM 82.4 °F 85.4 °F 68.0 °F 62% 30.05 in 10.0 mi SE 13.8 mph - N/A   Clear
7:35 PM 82.4 °F 86.3 °F 69.8 °F 66% 30.04 in 10.0 mi SE 9.2 mph - N/A   Clear
7:55 PM 80.6 °F 83.9 °F 69.8 °F 70% 30.04 in 10.0 mi ESE 8.1 mph - N/A   Clear
8:15 PM 78.8 °F - 69.8 °F 74% 30.04 in 10.0 mi SE 10.4 mph - N/A   Clear
8:35 PM 78.8 °F - 69.8 °F 74% 30.05 in 10.0 mi SE 9.2 mph - N/A   Clear
8:55 PM 77.0 °F - 69.8 °F 78% 30.05 in 10.0 mi SE 9.2 mph - N/A   Clear
9:15 PM 77.0 °F - 69.8 °F 78% 30.06 in 10.0 mi SE 9.2 mph - N/A   Clear
9:35 PM 77.0 °F - 69.8 °F 78% 30.06 in 10.0 mi SE 8.1 mph - N/A   Clear
9:55 PM 75.2 °F - 69.8 °F 83% 30.07 in 10.0 mi SSE 10.4 mph - N/A   Clear
10:15 PM 73.4 °F - 69.8 °F 88% 30.08 in 10.0 mi SSE 10.4 mph - N/A   Clear
10:35 PM 73.4 °F - 69.8 °F 88% 30.08 in 10.0 mi SE 9.2 mph - N/A   Clear
10:55 PM 73.4 °F - 69.8 °F 88% 30.08 in 10.0 mi SE 6.9 mph - N/A   Clear
11:15 PM 71.6 °F - 69.8 °F 94% 30.08 in 10.0 mi SE 8.1 mph - N/A   Clear
11:35 PM 71.6 °F - 69.8 °F 94% 30.08 in 10.0 mi SSE 6.9 mph - N/A   Clear
11:55 PM 71.6 °F - 69.8 °F 94% 30.08 in 10.0 mi SSE 5.8 mph - N/A   Clear